Kuchera_Ratio
0.0 0.0 0.0 0.0 0.0 0.0 0.0 0.0 0.0 0.0 0.0 0.0 0.0 0.0 0.0 0.0 0.0 0.0 0.0 0.0 0.0 0.0 0.0 0.0 0.0 0.0 0.0 0.0 0.0 0.0 0.0 0.0 1.3 1.4 1.5 1.7 2.2 3.0 1.8 4.6 7.7 8.3 9.7 3.6
0.0 0.0 0.0 0.0 0.0 0.0 0.0 0.0 0.0 0.0 0.0 0.0 0.0 0.0 0.0 0.0 0.0 0.0 0.0 0.0 0.0 0.0 0.0 0.0 0.0 0.0 0.0 0.0 0.0 0.0 0.0 0.0 1.9 1.9 2.8 2.6 3.8 3.0 3.1 4.3 6.4 7.3 12.3 2.7
0.0 0.0 0.0 0.0 0.0 0.0 0.0 0.0 0.0 0.0 0.0 0.0 0.0 0.0 0.0 0.0 0.0 0.0 0.0 0.0 0.0 0.0 0.0 0.0 0.0 0.0 0.0 0.0 0.0 0.0 0.0 0.0 1.1 1.3 0.7 0.0 3.3 0.6 2.8 3.9 9.8 8.0 7.3 0.0
0.0 0.0 0.0 0.0 0.0 0.0 0.0 0.0 0.0 0.0 0.0 0.0 0.0 0.0 0.0 0.0 0.0 0.0 0.0 0.0 0.0 0.0 0.0 0.0 0.0 0.0 0.0 0.0 0.0 0.0 0.0 2.7 1.4 0.0 0.1 2.6 2.0 0.5 0.6 7.9 2.7 7.5 0.0 2.0
0.0 0.0 0.0 0.0 0.0 0.0 0.0 0.0 0.0 0.0 0.0 0.0 0.0 0.0 0.0 0.0 0.0 0.0 0.0 0.0 0.0 0.0 0.0 0.0 0.0 0.0 0.0 0.0 0.0 0.4 0.8 1.4 5.0 4.2 0.9 1.4 4.8 1.4 1.7 4.7 2.8 4.8 2.6 4.9
0.0 0.0 0.0 0.0 0.0 0.0 0.0 0.0 0.0 0.0 0.0 0.0 0.0 0.0 0.0 0.0 0.0 0.0 0.0 0.0 0.0 0.0 0.0 0.0 0.0 0.0 0.0 0.0 0.0 0.1 1.5 2.9 7.7 11.0 4.6 6.2 12.7 2.2 0.0 1.4 3.5 2.4 8.5 0.7
0.0 0.0 0.0 0.0 0.0 0.0 0.0 0.0 0.0 0.0 0.0 0.0 0.0 0.0 0.0 0.0 0.0 0.0 0.0 0.0 0.0 0.0 0.0 0.0 0.0 0.0 0.0 0.0 0.0 0.0 4.5 5.3 6.7 12.9 6.8 16.3 1.7 0.0 0.0 0.0 1.8 1.3 0.2 1.6
0.0 0.0 0.0 0.0 0.0 0.0 0.0 0.0 0.0 0.0 0.0 0.0 0.0 0.0 0.0 0.0 0.0 0.0 0.0 0.0 0.0 0.0 0.0 0.0 3.7 2.1 2.0 0.0 1.3 2.4 2.0 4.2 7.7 13.6 13.8 8.6 0.1 0.0 2.4 3.8 9.4 3.5 3.8 2.9
0.0 0.0 0.0 0.0 0.0 0.0 0.0 0.0 0.0 0.0 0.0 0.0 0.0 0.0 0.0 0.0 0.0 0.0 0.0 0.0 0.0 0.0 0.0 1.9 9.5 11.9 3.4 5.3 6.5 5.3 5.6 3.5 5.6 13.7 15.0 17.0 5.9 0.0 0.0 0.0 12.7 3.3 2.4 4.6
0.0 0.0 0.0 0.0 0.0 0.0 0.0 0.0 0.0 0.0 0.6 0.0 0.0 0.0 0.0 0.0 0.0 0.3 0.0 0.0 0.0 0.0 2.9 9.3 10.5 10.8 3.6 9.7 10.8 12.0 12.1 12.7 12.6 10.7 13.1 10.3 1.9 0.0 0.0 12.7 11.2 5.8 5.2 5.8
0.0 0.0 0.0 0.0 0.0 0.0 0.0 0.0 0.0 0.0 1.1 0.0 0.0 0.0 0.0 0.0 0.0 2.4 0.0 0.0 1.4 5.2 8.5 9.9 8.8 11.0 7.6 9.0 6.5 6.4 7.7 12.9 13.8 12.0 13.4 14.5 2.9 0.0 7.5 8.0 6.3 6.4 6.8 4.9
0.0 0.0 0.0 0.0 0.0 0.0 0.0 0.0 0.0 0.0 0.0 0.0 0.0 0.0 0.0 0.0 0.0 0.0 0.0 0.0 0.7 0.5 6.2 8.2 8.3 12.0 10.5 10.8 13.7 6.6 10.0 4.0 6.8 7.1 10.2 6.3 4.8 5.9 3.2 2.4 4.4 4.7 5.5 3.3
0.0 0.0 0.0 0.0 0.0 0.0 0.0 0.2 0.0 0.0 0.5 1.1 0.0 0.0 0.0 0.0 0.0 0.0 0.2 0.0 0.0 0.0 0.0 1.9 5.0 10.7 7.0 12.5 12.2 5.5 3.4 0.0 6.0 5.7 5.1 4.8 5.2 4.8 3.9 3.8 4.7 2.1 2.6 4.5
0.0 0.0 0.0 0.0 0.0 0.0 0.0 0.5 0.0 0.0 2.9 8.5 4.2 0.0 0.0 0.0 0.0 0.0 0.0 0.0 0.0 0.0 0.0 2.1 5.5 7.7 2.3 10.9 8.0 8.8 4.5 0.4 5.2 5.8 7.0 7.2 6.8 6.2 4.4 3.6 3.6 4.5 4.2 5.5
0.0 0.0 0.0 0.0 0.0 0.0 0.0 0.0 0.0 0.0 3.3 10.3 8.9 0.0 0.0 0.0 0.0 0.0 0.0 0.0 0.0 0.0 3.2 5.3 7.8 3.6 4.3 4.4 5.5 10.8 3.4 6.4 7.0 8.5 7.6 7.1 7.7 7.0 4.3 6.1 6.3 5.4 7.3 7.4
0.0 0.0 0.0 0.0 0.0 0.0 0.0 5.4 0.0 0.0 0.0 7.3 13.3 1.6 1.7 0.0 0.0 0.0 0.0 0.0 0.0 0.0 3.2 5.1 3.2 0.0 4.7 10.3 12.8 10.9 7.4 8.2 7.4 10.8 7.8 7.3 5.5 4.6 4.8 6.3 6.2 5.4 6.8 7.1
0.0 0.0 0.0 0.0 0.0 0.0 4.7 6.5 0.1 0.0 0.0 7.3 12.8 12.9 3.4 0.3 0.0 0.6 2.2 0.6 1.3 1.1 4.6 6.0 5.1 5.2 2.7 9.0 14.9 13.6 11.9 8.8 7.6 6.7 5.9 8.6 7.5 9.7 7.4 7.5 7.0 7.2 7.0 6.5
0.0 0.0 0.0 0.0 0.0 0.0 2.2 0.0 0.0 0.0 2.7 3.9 13.9 14.0 11.7 4.6 7.3 8.3 2.2 5.0 3.4 4.4 5.3 5.5 6.5 5.2 6.2 12.8 12.3 10.0 9.2 9.2 8.5 8.6 8.8 8.5 8.5 8.1 7.4 7.2 6.8 8.6 9.0 8.5
0.0 0.0 0.0 0.0 1.2 5.6 2.7 0.0 0.0 0.0 4.2 13.2 13.1 15.3 16.1 6.2 8.8 8.0 7.9 6.6 13.0 7.6 9.7 10.2 8.7 12.0 16.2 13.5 12.9 12.3 11.2 11.4 12.3 9.5 8.1 8.3 9.5 8.8 8.5 8.8 9.4 10.9 11.2 9.3
0.0 1.2 6.5 12.1 3.9 0.0 0.0 1.7 7.2 10.2 7.9 7.6 13.1 12.1 13.9 11.6 12.3 12.9 12.5 11.3 13.5 15.6 13.1 10.5 12.7 15.0 12.6 11.5 9.9 9.2 8.8 8.5 9.7 13.0 12.5 11.9 12.3 12.0 11.5 11.3 11.1 11.7 11.8 10.6
5.0 11.6 12.2 5.8 0.0 5.2 9.9 14.6 14.7 13.7 14.2 12.5 13.6 13.9 14.9 9.7 14.6 15.2 11.7 16.2 14.6 19.0 15.1 15.8 16.4 16.9 14.7 11.7 10.7 9.1 8.4 8.7 7.7 8.7 9.6 9.9 10.9 12.0 11.9 11.6 10.7 10.7 10.6 11.1
6.5 5.6 7.1 8.9 13.2 15.4 17.7 18.1 15.9 15.1 16.4 14.6 14.5 14.3 13.7 12.5 10.7 14.3 15.6 16.6 16.9 19.8 16.5 17.3 20.0 16.0 13.7 12.5 10.5 7.8 7.2 7.9 8.7 8.2 10.1 9.8 10.0 10.1 11.8 12.0 11.7 11.7 10.7 10.9
7.0 12.4 15.4 15.9 17.1 18.3 20.8 21.7 20.3 18.5 15.3 14.9 14.5 16.2 14.8 14.3 14.4 15.8 18.4 19.8 20.3 17.9 20.4 21.3 17.2 14.1 12.7 12.2 10.0 8.9 7.6 8.1 9.7 11.0 10.7 11.2 11.9 11.5 12.2 12.6 11.9 11.9 12.4 11.5
14.8 15.9 18.6 19.3 18.9 19.3 18.8 18.8 18.8 15.7 15.2 15.2 15.2 15.4 15.6 13.8 18.8 17.9 19.5 20.0 20.0 21.2 21.8 20.1 17.0 14.4 12.9 11.7 10.4 11.5 12.4 12.6 12.9 13.0 12.7 13.0 13.4 13.1 12.8 12.5 12.4 13.1 13.5 12.5
15.7 16.3 19.2 19.2 16.8 16.8 16.0 15.7 15.2 14.9 14.8 15.5 15.5 17.1 17.0 19.3 19.2 19.7 19.9 21.6 22.0 20.2 19.8 18.3 14.6 14.3 13.3 13.0 12.9 13.8 14.4 14.6 14.9 14.7 15.3 15.2 14.9 15.0 14.8 13.6 13.6 13.6 13.5 13.4
16.6 17.8 19.3 17.9 18.1 16.4 15.3 15.3 15.3 14.4 15.0 15.8 16.4 19.5 19.5 20.3 20.6 22.2 22.4 22.4 22.9 19.9 17.8 15.1 15.8 15.4 14.3 14.3 14.4 14.7 14.8 14.8 15.0 14.8 14.8 14.4 14.8 15.0 15.1 14.5 14.6 14.7 14.4 15.1
17.6 18.2 14.9 15.9 17.1 17.1 16.4 15.9 15.7 14.3 15.6 19.3 19.6 19.7 21.2 20.8 22.2 22.2 21.7 20.9 19.5 15.6 15.9 14.5 14.3 14.6 14.8 14.9 15.0 15.4 15.3 15.6 15.6 15.7 14.9 15.4 14.5 15.5 16.7 16.8 14.9 14.3 14.1 14.3